Back to catalog

FENGYUN 1C DEB

AlivePO
NORAD 30239·DEBRIS·🇨🇳 China

Launched May 10, 1999 from Taiyuan Satellite Launch Center

Loading…

Next Passes (next 24 hours)

TLE

FreshSource: Space-Track

Epoch: Sep 13, 2026, 22:07 UTC

1 30239U 99025WY  26256.92187115  .00016621  00000-0  38496-1 0  9994
2 30239  99.5210 319.7942 1391060 266.3913  77.7504 11.42594562576748

Track FENGYUN 1C DEB in real time with AllMySat

Download on the App Store